Time,TemperatureF,DewpointF,PressureIn,WindDirection,WindDirectionDegrees,WindSpeedMPH,WindSpeedGustMPH,Humidity,HourlyPrecipIn,Conditions,Clouds,dailyrainin,SoftwareType,DateUTC
2013-04-17 00:03:00,50.0,49.0,-100.00,SSE,155,1.0,1.0,97,0.00,,,-99.99,,2013-04-17 04:03:00,
2013-04-17 00:13:00,50.0,49.0,-100.00,SE,135,1.0,1.0,97,0.00,,,-99.99,,2013-04-17 04:13:00,
2013-04-17 00:22:00,49.0,49.0,-100.00,SSE,160,1.0,3.0,98,0.00,,,-99.99,,2013-04-17 04:22:00,
2013-04-17 00:33:00,49.0,49.0,-100.00,WSW,240,2.0,2.0,98,0.00,,,-99.99,,2013-04-17 04:33:00,
2013-04-17 00:42:00,49.0,49.0,-100.00,East,100,0.0,3.0,98,0.00,,,-99.99,,2013-04-17 04:42:00,
2013-04-17 00:52:00,49.0,49.0,-100.00,ESE,120,0.0,1.0,98,0.00,,,-99.99,,2013-04-17 04:52:00,
2013-04-17 01:03:00,49.0,49.0,-100.00,WNW,285,2.0,2.0,98,0.00,,,-99.99,,2013-04-17 05:03:00,
2013-04-17 01:12:00,49.0,48.0,-100.00,WSW,250,0.0,2.0,98,0.00,,,-99.99,,2013-04-17 05:12:00,
2013-04-17 01:22:00,49.0,48.0,-100.00,SSE,150,1.0,2.0,98,0.00,,,-99.99,,2013-04-17 05:22:00,
2013-04-17 01:32:00,48.0,48.0,-100.00,NW,320,2.0,4.0,98,0.00,,,-99.99,,2013-04-17 05:32:00,
2013-04-17 01:42:00,48.0,47.0,-100.00,NW,325,0.0,1.0,98,0.00,,,-99.99,,2013-04-17 05:42:00,
2013-04-17 01:52:00,48.0,47.0,-100.00,NW,325,0.0,1.0,98,0.00,,,-99.99,,2013-04-17 05:52:00,
2013-04-17 02:02:00,47.0,47.0,-100.00,SW,225,0.0,0.0,98,0.00,,,-99.99,,2013-04-17 06:02:00,
2013-04-17 02:12:00,48.0,47.0,-100.00,ESE,115,0.0,0.0,98,0.00,,,-99.99,,2013-04-17 06:12:00,
2013-04-17 02:22:00,48.0,47.0,-100.00,ESE,120,0.0,0.0,98,0.00,,,-99.99,,2013-04-17 06:22:00,
2013-04-17 02:32:00,48.0,47.0,-100.00,SSE,165,0.0,1.0,98,0.00,,,-99.99,,2013-04-17 06:32:00,
2013-04-17 02:42:00,48.0,47.0,-100.00,WSW,250,0.0,1.0,98,0.00,,,-99.99,,2013-04-17 06:42:00,
2013-04-17 02:52:00,48.0,47.0,-100.00,WSW,250,0.0,1.0,98,0.00,,,-99.99,,2013-04-17 06:52:00,
2013-04-17 03:02:00,48.0,47.0,-100.00,ENE,60,0.0,1.0,98,0.00,,,-99.99,,2013-04-17 07:02:00,
2013-04-17 03:12:00,48.0,47.0,-100.00,ENE,60,0.0,1.0,98,0.00,,,-99.99,,2013-04-17 07:12:00,
2013-04-17 03:22:00,48.0,48.0,-100.00,SW,225,1.0,2.0,98,0.00,,,-99.99,,2013-04-17 07:22:00,
2013-04-17 03:32:00,48.0,48.0,-100.00,WSW,255,0.0,2.0,98,0.00,,,-99.99,,2013-04-17 07:32:00,
2013-04-17 03:42:00,48.0,48.0,-100.00,ENE,65,1.0,1.0,98,0.00,,,-99.99,,2013-04-17 07:42:00,
2013-04-17 03:52:00,48.0,48.0,-100.00,ESE,105,0.0,2.0,98,0.00,,,-99.99,,2013-04-17 07:52:00,
2013-04-17 04:02:00,48.0,48.0,-100.00,WNW,290,0.0,1.0,98,0.00,,,-99.99,,2013-04-17 08:02:00,
2013-04-17 04:12:00,48.0,48.0,-100.00,NNW,335,1.0,2.0,98,0.00,,,-99.99,,2013-04-17 08:12:00,
2013-04-17 04:22:00,48.0,48.0,-100.00,North,0,0.0,2.0,98,0.00,,,-99.99,,2013-04-17 08:22:00,
2013-04-17 04:32:00,48.0,48.0,-100.00,NE,55,0.0,2.0,98,0.00,,,-99.99,,2013-04-17 08:32:00,
2013-04-17 04:42:00,48.0,48.0,-100.00,North,5,2.0,3.0,98,0.00,,,-99.99,,2013-04-17 08:42:00,
2013-04-17 04:52:00,48.0,48.0,-100.00,NNE,30,1.0,2.0,98,0.00,,,-99.99,,2013-04-17 08:52:00,
2013-04-17 05:02:00,49.0,48.0,-100.00,NNE,30,0.0,2.0,98,0.00,,,-99.99,,2013-04-17 09:02:00,
2013-04-17 05:12:00,49.0,48.0,-100.00,ENE,75,2.0,4.0,98,0.00,,,-99.99,,2013-04-17 09:12:00,
2013-04-17 05:22:00,49.0,48.0,-100.00,NE,55,3.0,5.0,98,0.00,,,-99.99,,2013-04-17 09:22:00,
2013-04-17 05:33:00,48.0,48.0,-100.00,ENE,60,2.0,6.0,98,0.00,,,-99.99,,2013-04-17 09:33:00,
2013-04-17 05:42:00,48.0,48.0,-100.00,North,0,2.0,4.0,98,0.00,,,-99.99,,2013-04-17 09:42:00,
2013-04-17 05:52:00,48.0,48.0,-100.00,North,10,1.0,4.0,98,0.00,,,-99.99,,2013-04-17 09:52:00,
2013-04-17 06:03:00,48.0,48.0,-100.00,North,10,1.0,4.0,98,0.00,,,-99.99,,2013-04-17 10:03:00,
2013-04-17 06:12:00,47.0,47.0,-100.00,ENE,70,0.0,4.0,98,0.00,,,-99.99,,2013-04-17 10:12:00,
2013-04-17 06:23:00,47.0,47.0,-100.00,East,95,0.0,3.0,98,0.00,,,-99.99,,2013-04-17 10:23:00,
2013-04-17 06:32:00,47.0,46.0,-100.00,NNE,20,1.0,4.0,98,0.00,,,-99.99,,2013-04-17 10:32:00,
2013-04-17 06:43:00,47.0,46.0,-100.00,ENE,75,1.0,4.0,98,0.00,,,-99.99,,2013-04-17 10:43:00,
2013-04-17 06:52:00,46.0,46.0,-100.00,North,0,3.0,7.0,98,0.00,,,-99.99,,2013-04-17 10:52:00,
2013-04-17 07:02:00,46.0,46.0,-100.00,North,0,0.0,6.0,98,0.00,,,-99.99,,2013-04-17 11:02:00,
2013-04-17 07:12:00,46.0,45.0,-100.00,NE,35,1.0,7.0,98,0.00,,,-99.99,,2013-04-17 11:12:00,
2013-04-17 07:22:00,46.0,45.0,-100.00,North,0,2.0,6.0,98,0.00,,,-99.99,,2013-04-17 11:22:00,
2013-04-17 07:32:00,45.0,45.0,-100.00,NE,55,2.0,6.0,98,0.00,,,-99.99,,2013-04-17 11:32:00,
2013-04-17 07:42:00,45.0,45.0,-100.00,North,0,1.0,4.0,98,0.00,,,-99.99,,2013-04-17 11:42:00,
2013-04-17 07:52:00,45.0,45.0,-100.00,ENE,60,3.0,6.0,98,0.00,,,-99.99,,2013-04-17 11:52:00,
2013-04-17 08:03:00,45.0,45.0,-100.00,NE,50,2.0,5.0,98,0.00,,,-99.99,,2013-04-17 12:03:00,
2013-04-17 08:12:00,45.0,45.0,-100.00,ENE,60,2.0,6.0,98,0.00,,,-99.99,,2013-04-17 12:12:00,
2013-04-17 08:22:00,45.0,45.0,-100.00,NE,50,4.0,5.0,98,0.00,,,-99.99,,2013-04-17 12:22:00,
2013-04-17 08:32:00,45.0,44.0,-100.00,NE,55,6.0,9.0,97,0.00,,,-99.99,,2013-04-17 12:32:00,
2013-04-17 08:42:00,45.0,44.0,-100.00,NE,50,4.0,10.0,96,0.00,,,-99.99,,2013-04-17 12:42:00,
2013-04-17 08:52:00,46.0,44.0,-100.00,NE,45,4.0,9.0,94,0.00,,,-99.99,,2013-04-17 12:52:00,
2013-04-17 09:02:00,46.0,44.0,-100.00,ENE,60,6.0,7.0,92,0.00,,,-99.99,,2013-04-17 13:02:00,
2013-04-17 09:12:00,47.0,44.0,-100.00,ENE,60,3.0,6.0,89,0.00,,,-99.99,,2013-04-17 13:12:00,
2013-04-17 09:22:00,48.0,44.0,-100.00,ENE,60,2.0,4.0,86,0.00,,,-99.99,,2013-04-17 13:22:00,
2013-04-17 09:32:00,49.0,43.0,-100.00,North,0,4.0,7.0,80,0.00,,,-99.99,,2013-04-17 13:32:00,
2013-04-17 09:42:00,49.0,40.0,-100.00,NE,45,6.0,12.0,73,0.00,,,-99.99,,2013-04-17 13:42:00,
2013-04-17 09:52:00,49.0,40.0,-100.00,ENE,60,3.0,11.0,68,0.00,,,-99.99,,2013-04-17 13:52:00,
2013-04-17 10:02:00,51.0,39.0,-100.00,NE,55,2.0,9.0,64,0.00,,,-99.99,,2013-04-17 14:02:00,
2013-04-17 10:12:00,53.0,40.0,-100.00,NE,50,2.0,6.0,61,0.00,,,-99.99,,2013-04-17 14:12:00,
2013-04-17 10:22:00,52.0,38.0,-100.00,NE,50,4.0,9.0,57,0.00,,,-99.99,,2013-04-17 14:22:00,
2013-04-17 10:32:00,53.0,37.0,-100.00,NE,40,4.0,9.0,55,0.00,,,-99.99,,2013-04-17 14:32:00,
2013-04-17 10:42:00,54.0,38.0,-100.00,NE,45,4.0,9.0,55,0.00,,,-99.99,,2013-04-17 14:42:00,
2013-04-17 10:52:00,54.0,38.0,-100.00,NE,55,1.0,6.0,54,0.00,,,-99.99,,2013-04-17 14:52:00,
2013-04-17 11:02:00,54.0,37.0,-100.00,ENE,65,4.0,10.0,53,0.00,,,-99.99,,2013-04-17 15:02:00,
2013-04-17 11:12:00,54.0,37.0,-100.00,East,80,6.0,11.0,53,0.00,,,-99.99,,2013-04-17 15:12:00,
2013-04-17 11:22:00,54.0,37.0,-100.00,East,80,6.0,11.0,53,0.00,,,-99.99,,2013-04-17 15:22:00,
2013-04-17 11:33:00,56.0,39.0,-100.00,North,0,2.0,7.0,53,0.00,,,-99.99,,2013-04-17 15:33:00,
2013-04-17 11:43:00,56.0,39.0,-100.00,NE,45,6.0,9.0,52,0.00,,,-99.99,,2013-04-17 15:43:00,
2013-04-17 11:53:00,57.0,39.0,-100.00,NE,55,3.0,6.0,51,0.00,,,-99.99,,2013-04-17 15:53:00,
2013-04-17 12:03:00,58.0,39.0,-100.00,North,0,3.0,9.0,50,0.00,,,-99.99,,2013-04-17 16:03:00,
2013-04-17 12:12:00,59.0,40.0,-100.00,ENE,60,6.0,9.0,50,0.00,,,-99.99,,2013-04-17 16:12:00,
2013-04-17 12:23:00,58.0,40.0,-100.00,ENE,75,6.0,11.0,49,0.00,,,-99.99,,2013-04-17 16:23:00,
2013-04-17 12:32:00,59.0,40.0,-100.00,NE,50,4.0,12.0,49,0.00,,,-99.99,,2013-04-17 16:32:00,
2013-04-17 12:42:00,59.0,40.0,-100.00,NE,55,2.0,10.0,49,0.00,,,-99.99,,2013-04-17 16:42:00,
2013-04-17 12:52:00,59.0,40.0,-100.00,NE,40,6.0,12.0,49,0.00,,,-99.99,,2013-04-17 16:52:00,
2013-04-17 13:02:00,60.0,41.0,-100.00,NE,50,4.0,10.0,49,0.00,,,-99.99,,2013-04-17 17:02:00,
2013-04-17 13:12:00,60.0,40.0,-100.00,ENE,60,5.0,11.0,49,0.00,,,-99.99,,2013-04-17 17:12:00,
2013-04-17 13:22:00,61.0,42.0,-100.00,North,0,3.0,9.0,49,0.00,,,-99.99,,2013-04-17 17:22:00,
2013-04-17 13:33:00,63.0,43.0,-100.00,North,0,2.0,9.0,48,0.00,,,-99.99,,2013-04-17 17:33:00,
2013-04-17 13:42:00,63.0,42.0,-100.00,NNW,345,5.0,9.0,47,0.00,,,-99.99,,2013-04-17 17:42:00,
2013-04-17 13:52:00,63.0,42.0,-100.00,North,0,6.0,9.0,46,0.00,,,-99.99,,2013-04-17 17:52:00,
2013-04-17 14:02:00,63.0,42.0,-100.00,North,355,5.0,11.0,46,0.00,,,-99.99,,2013-04-17 18:02:00,
2013-04-17 14:12:00,62.0,41.0,-100.00,ENE,60,3.0,11.0,45,0.00,,,-99.99,,2013-04-17 18:12:00,
2013-04-17 14:22:00,64.0,42.0,-100.00,ENE,65,4.0,9.0,44,0.00,,,-99.99,,2013-04-17 18:22:00,
2013-04-17 14:32:00,64.0,41.0,-100.00,East,80,4.0,9.0,43,0.00,,,-99.99,,2013-04-17 18:32:00,
2013-04-17 14:42:00,65.0,42.0,-100.00,North,0,6.0,9.0,44,0.00,,,-99.99,,2013-04-17 18:42:00,
2013-04-17 14:52:00,65.0,42.0,-100.00,ENE,65,6.0,11.0,42,0.00,,,-99.99,,2013-04-17 18:52:00,
2013-04-17 15:02:00,65.0,41.0,-100.00,ENE,70,3.0,9.0,42,0.00,,,-99.99,,2013-04-17 19:02:00,
2013-04-17 15:12:00,66.0,42.0,-100.00,North,0,4.0,8.0,41,0.00,,,-99.99,,2013-04-17 19:12:00,
2013-04-17 15:22:00,67.0,43.0,-100.00,North,0,3.0,9.0,41,0.00,,,-99.99,,2013-04-17 19:22:00,
2013-04-17 15:32:00,66.0,42.0,-100.00,North,5,2.0,9.0,40,0.00,,,-99.99,,2013-04-17 19:32:00,
2013-04-17 15:42:00,65.0,40.0,-100.00,NE,45,6.0,10.0,39,0.00,,,-99.99,,2013-04-17 19:42:00,
2013-04-17 15:52:00,65.0,40.0,-100.00,NE,45,5.0,12.0,39,0.00,,,-99.99,,2013-04-17 19:52:00,
2013-04-17 16:03:00,67.0,41.0,-100.00,ESE,105,3.0,9.0,39,0.00,,,-99.99,,2013-04-17 20:03:00,
2013-04-17 16:12:00,68.0,43.0,-100.00,North,0,4.0,9.0,40,0.00,,,-99.99,,2013-04-17 20:12:00,
2013-04-17 16:22:00,68.0,43.0,-100.00,North,0,4.0,9.0,40,0.00,,,-99.99,,2013-04-17 20:22:00,
2013-04-17 16:32:00,67.0,42.0,-100.00,NNE,25,1.0,7.0,41,0.00,,,-99.99,,2013-04-17 20:32:00,
2013-04-17 16:42:00,66.0,42.0,-100.00,North,0,4.0,9.0,41,0.00,,,-99.99,,2013-04-17 20:42:00,
2013-04-17 16:52:00,67.0,42.0,-100.00,ENE,70,3.0,4.0,39,0.00,,,-99.99,,2013-04-17 20:52:00,
2013-04-17 17:03:00,66.0,41.0,-100.00,ENE,75,3.0,6.0,39,0.00,,,-99.99,,2013-04-17 21:03:00,
2013-04-17 17:12:00,66.0,42.0,-100.00,NE,45,4.0,10.0,41,0.00,,,-99.99,,2013-04-17 21:12:00,
2013-04-17 17:22:00,66.0,42.0,-100.00,NE,45,4.0,10.0,41,0.00,,,-99.99,,2013-04-17 21:22:00,
2013-04-17 17:33:00,66.0,41.0,-100.00,ENE,75,6.0,10.0,39,0.00,,,-99.99,,2013-04-17 21:33:00,
2013-04-17 17:42:00,66.0,41.0,-100.00,SE,125,2.0,7.0,39,0.00,,,-99.99,,2013-04-17 21:42:00,
2013-04-17 17:53:00,66.0,41.0,-100.00,East,80,6.0,9.0,39,0.00,,,-99.99,,2013-04-17 21:53:00,
2013-04-17 18:02:00,66.0,41.0,-100.00,ENE,65,6.0,10.0,39,0.00,,,-99.99,,2013-04-17 22:02:00,
2013-04-17 18:12:00,65.0,41.0,-100.00,ENE,70,4.0,10.0,40,0.00,,,-99.99,,2013-04-17 22:12:00,
2013-04-17 18:22:00,65.0,41.0,-100.00,NE,55,6.0,9.0,41,0.00,,,-99.99,,2013-04-17 22:22:00,
2013-04-17 18:33:00,64.0,42.0,-100.00,North,355,4.0,7.0,44,0.00,,,-99.99,,2013-04-17 22:33:00,
2013-04-17 18:42:00,64.0,43.0,-100.00,North,0,1.0,6.0,46,0.00,,,-99.99,,2013-04-17 22:42:00,
2013-04-17 18:53:00,64.0,44.0,-100.00,North,10,1.0,3.0,47,0.00,,,-99.99,,2013-04-17 22:53:00,
2013-04-17 19:02:00,63.0,43.0,-100.00,North,0,2.0,6.0,47,0.00,,,-99.99,,2013-04-17 23:02:00,
2013-04-17 19:12:00,62.0,42.0,-100.00,NE,55,4.0,6.0,48,0.00,,,-99.99,,2013-04-17 23:12:00,
2013-04-17 19:22:00,62.0,42.0,-100.00,ENE,60,3.0,6.0,48,0.00,,,-99.99,,2013-04-17 23:22:00,
2013-04-17 19:32:00,62.0,42.0,-100.00,East,90,3.0,7.0,48,0.00,,,-99.99,,2013-04-17 23:32:00,
2013-04-17 19:42:00,64.0,43.0,-100.00,East,85,5.0,9.0,46,0.00,,,-99.99,,2013-04-17 23:42:00,
2013-04-17 19:52:00,64.0,43.0,-100.00,ENE,70,4.0,9.0,45,0.00,,,-99.99,,2013-04-17 23:52:00,
2013-04-17 20:02:00,64.0,43.0,-100.00,ESE,115,5.0,9.0,45,0.00,,,-99.99,,2013-04-18 00:02:00,
2013-04-17 20:12:00,64.0,43.0,-100.00,East,80,4.0,10.0,45,0.00,,,-99.99,,2013-04-18 00:12:00,
2013-04-17 20:22:00,64.0,43.0,-100.00,East,90,2.0,7.0,46,0.00,,,-99.99,,2013-04-18 00:22:00,
2013-04-17 20:32:00,64.0,42.0,-100.00,ENE,70,3.0,6.0,46,0.00,,,-99.99,,2013-04-18 00:32:00,
2013-04-17 20:42:00,63.0,42.0,-100.00,East,95,3.0,6.0,46,0.00,,,-99.99,,2013-04-18 00:42:00,
2013-04-17 20:52:00,63.0,43.0,-100.00,East,85,4.0,6.0,47,0.00,,,-99.99,,2013-04-18 00:52:00,
2013-04-17 21:02:00,63.0,43.0,-100.00,East,90,3.0,7.0,47,0.00,,,-99.99,,2013-04-18 01:02:00,
2013-04-17 21:12:00,63.0,43.0,-100.00,East,85,3.0,6.0,47,0.00,,,-99.99,,2013-04-18 01:12:00,
2013-04-17 21:22:00,63.0,43.0,-100.00,East,95,3.0,7.0,48,0.00,,,-99.99,,2013-04-18 01:22:00,
2013-04-17 21:32:00,63.0,43.0,-100.00,East,95,2.0,6.0,49,0.00,,,-99.99,,2013-04-18 01:32:00,
2013-04-17 21:42:00,62.0,44.0,-100.00,ENE,75,4.0,8.0,50,0.00,,,-99.99,,2013-04-18 01:42:00,
2013-04-17 21:52:00,62.0,43.0,-100.00,ENE,70,4.0,7.0,50,0.00,,,-99.99,,2013-04-18 01:52:00,
2013-04-17 22:02:00,61.0,43.0,-100.00,East,80,2.0,6.0,52,0.00,,,-99.99,,2013-04-18 02:02:00,
2013-04-17 22:12:00,60.0,43.0,-100.00,NE,55,3.0,6.0,53,0.00,,,-99.99,,2013-04-18 02:12:00,
2013-04-17 22:22:00,60.0,43.0,-100.00,East,80,4.0,5.0,54,0.00,,,-99.99,,2013-04-18 02:22:00,
2013-04-17 22:32:00,59.0,43.0,-100.00,ENE,70,3.0,6.0,55,0.00,,,-99.99,,2013-04-18 02:32:00,
2013-04-17 22:42:00,59.0,43.0,-100.00,ENE,70,3.0,6.0,55,0.00,,,-99.99,,2013-04-18 02:42:00,
2013-04-17 22:52:00,59.0,43.0,-100.00,ENE,70,3.0,6.0,55,0.00,,,-99.99,,2013-04-18 02:52:00,
2013-04-17 23:02:00,58.0,44.0,-100.00,East,80,3.0,6.0,58,0.00,,,-99.99,,2013-04-18 03:02:00,
2013-04-17 23:12:00,58.0,44.0,-100.00,ENE,65,3.0,5.0,59,0.00,,,-99.99,,2013-04-18 03:12:00,
2013-04-17 23:22:00,58.0,45.0,-100.00,NE,55,3.0,6.0,60,0.00,,,-99.99,,2013-04-18 03:22:00,
2013-04-17 23:33:00,58.0,45.0,-100.00,East,80,3.0,5.0,62,0.00,,,-99.99,,2013-04-18 03:33:00,
2013-04-17 23:43:00,58.0,46.0,-100.00,ENE,70,2.0,6.0,64,0.00,,,-99.99,,2013-04-18 03:43:00,
2013-04-17 23:53:00,58.0,47.0,-100.00,ENE,70,1.0,5.0,66,0.00,,,-99.99,,2013-04-18 03:53:00,